Weather History for Bozeman, MT

Change the Weather History Date:

Saturday, December 7, 2013

  Actual Average Record
Temperature  
Mean Temperature -16 °F 22 °F  
Max Temperature -8 °F 34 °F 53 °F (1939)
Min Temperature -25 °F 10 °F -29 °F (1972)
Degree Days  
Heating Degree Days 81    
Month to date heating degree days 424  
Since 1 July heating degree days 2396  
Cooling Degree Days 0    
Month to date cooling degree days 0  
Year to date cooling degree days 284  
Moisture  
Dew Point -21 °F    
Average Humidity 73    
Maximum Humidity 81    
Minimum Humidity 64    
Precipitation  
Precipitation T in 0.02 in 0.27 in (1974)
Month to date precipitation 0.09 0.15  
Year to date precipitation 11.58 13.62  
Snow  
Snow T in 0.20 in 2.10 in (1988)
Month to date snowfall 0.3 1.6  
Since 1 July snowfall 0.8 9.0  
Snow Depth T in    
Sea Level Pressure  
Sea Level Pressure 30.28 in    
Wind  
Wind Speed 3 mph (West)    
Max Wind Speed 8 mph    
Max Gust Speed 9 mph    
Visibility 7 miles    
Events Snow    
T = Trace of Precipitation, MM = Missing Value Source: NWS Daily Summary

Daily Weather History Graph

Daily Weather History Graph

Search for Another Location

Airport:

Trip Planner

Search our weather history database for the weather conditions in past years. The results will help you decide how hot, cold, wet, or windy it might be!

Date:

Astronomy

Dec. 07, 2013 Rise Set
Actual Time 7:52 AM MST 4:40 PM MST
Civil Twilight 7:18 AM MST 5:14 PM MST
Nautical Twilight 6:40 AM MST 5:51 PM MST
Astronomical Twilight 6:04 AM MST 6:27 PM MST
Moon 11:28 AM MST (12/7) 10:38 PM MST (12/7)
Length of Visible Light 9h 56m
Length of Day
8h 48m
Waxing Crescent, 30% of the Moon is Illuminated
Dec 7
Waxing Crescent
Dec 9
First Quarter
Dec 17
Full
Dec 25
Last Quarter
Jan 1
New

Hourly Weather History & Observations

Time (MST) Temp. Windchill Dew Point Humidity Pressure Visibility Wind Dir Wind Speed Gust Speed Precip Events Conditions
12:13 AM -17.0 °F -27.2 °F -23.1 °F 74% 30.20 in 9.0 mi NNW 3.5 mph - 0.00 in   Scattered Clouds
12:56 AM -16.1 °F -28.6 °F -22.0 °F 74% 30.56 in 9.0 mi NNW 4.6 mph - 0.00 in   Mostly Cloudy
1:17 AM -16.1 °F -28.6 °F -22.0 °F 74% 30.16 in 7.0 mi WNW 4.6 mph - 0.00 in Snow Light Snow
1:30 AM -17.0 °F -29.7 °F -23.1 °F 74% 30.16 in 10.0 mi NW 4.6 mph - 0.00 in   Scattered Clouds
1:56 AM -17.0 °F -27.2 °F -23.1 °F 74% 30.55 in 10.0 mi NW 3.5 mph - 0.00 in   Clear
2:56 AM -17.0 °F - -24.0 °F 70% 30.56 in - North - - N/A   Unknown
3:56 AM - - - N/A% 30.13 in - North - - N/A   Unknown
4:56 AM - - - N/A% 30.11 in - North - - N/A   Unknown
5:56 AM -15.0 °F - -20.9 °F 75% 30.47 in 10.0 mi Calm Calm - N/A   Overcast
6:56 AM -15.0 °F - -20.9 °F 75% 30.46 in 10.0 mi Calm Calm - N/A   Overcast
7:56 AM -15.0 °F - -20.0 °F 78% 30.46 in 10.0 mi Calm Calm - N/A   Mostly Cloudy
8:56 AM -14.1 °F - -20.0 °F 75% 30.48 in 10.0 mi Calm Calm - N/A   Overcast
9:23 AM -11.9 °F - -18.9 °F 71% 30.08 in 1.8 mi Calm Calm - 0.00 in Snow Light Snow
9:27 AM -11.9 °F - -18.9 °F 71% 30.08 in 1.2 mi Calm Calm - 0.00 in Snow Light Snow
9:49 AM -11.9 °F - -18.9 °F 71% 30.07 in 1.5 mi Calm Calm - 0.00 in Snow Light Snow
9:56 AM -11.9 °F - -20.0 °F 67% 30.45 in 1.8 mi Calm Calm - 0.00 in Snow Light Snow
10:05 AM -11.9 °F -23.8 °F -20.0 °F 67% 30.07 in 2.5 mi WNW 4.6 mph - 0.00 in   Haze
10:13 AM -11.9 °F -21.5 °F -20.0 °F 67% 30.07 in 3.0 mi WNW 3.5 mph - 0.00 in   Haze
10:41 AM -11.9 °F -23.8 °F -20.0 °F 67% 30.07 in 6.0 mi NW 4.6 mph - 0.00 in   Haze
10:56 AM -11.9 °F -25.7 °F -20.0 °F 67% 30.46 in 5.0 mi NW 5.8 mph - 0.00 in   Haze
11:42 AM -11.0 °F -24.6 °F -18.9 °F 68% 30.05 in 5.0 mi WNW 5.8 mph - N/A   Haze
11:51 AM -11.2 °F - -18.4 °F 70% 30.04 in 5.0 mi Calm Calm - N/A   Haze
11:56 AM -9.9 °F - -18.0 °F 68% 30.43 in 5.0 mi Calm Calm - N/A   Haze
12:56 PM -9.0 °F -18.2 °F -17.0 °F 68% 30.39 in 5.0 mi West 3.5 mph - N/A   Haze
1:07 PM -9.9 °F - -18.0 °F 68% 30.01 in 4.0 mi Calm Calm - N/A   Haze
1:56 PM -9.0 °F -18.2 °F -18.0 °F 65% 30.38 in 9.0 mi WNW 3.5 mph - N/A   Mostly Cloudy
2:08 PM -9.9 °F -21.5 °F -18.9 °F 65% 29.99 in 10.0 mi West 4.6 mph - N/A   Scattered Clouds
2:56 PM -9.0 °F - -18.9 °F 62% 30.37 in 10.0 mi Calm Calm - N/A   Clear
3:56 PM -11.0 °F -22.8 °F -18.9 °F 68% 29.98 in 10.0 mi SSW 4.6 mph - N/A   Clear
4:56 PM -13.0 °F -22.7 °F -20.9 °F 68% 29.98 in 10.0 mi SSW 3.5 mph - N/A   Clear
5:56 PM -16.1 °F - -22.0 °F 74% 30.40 in 10.0 mi Calm Calm - N/A   Clear
6:56 PM -18.0 °F -30.9 °F -22.0 °F 82% 30.42 in 10.0 mi ESE 4.6 mph - N/A   Clear
7:56 PM -18.9 °F -34.0 °F -25.1 °F 74% 30.43 in 10.0 mi South 5.8 mph - N/A   Clear
8:56 PM -18.9 °F -34.0 °F -26.0 °F 70% 30.43 in 10.0 mi South 5.8 mph - N/A   Clear
9:56 PM -22.0 °F -35.6 °F -27.0 °F 77% 30.44 in 10.0 mi South 4.6 mph - N/A   Clear
10:56 PM -22.0 °F -35.6 °F -29.0 °F 70% 30.44 in 10.0 mi SSE 4.6 mph - N/A   Clear
11:56 PM -23.1 °F -34.2 °F -29.9 °F 70% 30.42 in 10.0 mi East 3.5 mph - N/A   Clear